Location: Bakhuizen
(52.8696°N, 5.4575°E)
Time: 11:59:15
(UTC+00:00)

Cosmos 2278 Rocket - Visible Passes

Search period start: 19 September 2021 00:00
Search period end: 29 September 2021 00:00
Orbit: 839 x 847 km, 71.0° (Epoch: 19 September)

Date Brightness Start Highest point End Pass type
(mag) Time Alt. Az. Time Alt. Az. Time Alt. Az.
19 Sep 4.7 00:46:57 10° NNW 00:51:01 20° NNE 00:55:05 10° ENE visible
19 Sep 2.8 02:30:45 10° NNW 02:36:23 57° NE 02:41:58 10° SE visible
19 Sep 2.8 04:15:13 10° NW 04:20:13 32° WSW 04:25:11 10° SSW visible
19 Sep 3.0 19:12:20 10° SW 19:17:53 54° NW 19:23:29 10° NNE visible
19 Sep 4.8 20:59:21 10° WNW 21:03:19 19° NNW 21:07:16 10° NNE visible
19 Sep 5.2 22:47:33 10° NNW 22:49:52 12° N 22:52:11 10° NNE visible
20 Sep 4.7 00:32:22 10° NNW 00:36:23 19° NNE 00:40:24 10° ENE visible
20 Sep 2.8 02:16:10 10° NNW 02:21:47 55° NE 02:27:21 10° SE visible
20 Sep 2.8 04:00:36 10° NW 04:05:39 34° WSW 04:10:40 10° S visible
20 Sep 3.0 18:57:43 10° SW 19:03:17 55° NW 19:08:54 10° NNE visible
20 Sep 4.8 20:44:41 10° WNW 20:48:41 19° NNW 20:52:42 10° NNE visible
20 Sep 5.1 22:32:54 10° NNW 22:35:13 12° N 22:37:31 10° NNE visible
21 Sep 4.7 00:17:47 10° NNW 00:21:45 19° NNE 00:25:43 10° ENE visible
21 Sep 2.9 02:01:35 10° NNW 02:07:11 54° NE 02:12:44 10° SE visible
21 Sep 2.7 03:45:59 10° NW 03:51:05 35° WSW 03:56:09 10° S visible
21 Sep 3.0 18:43:06 10° SW 18:48:41 57° NW 18:54:19 10° NNE visible
21 Sep 4.7 20:29:59 10° WNW 20:34:02 19° NNW 20:38:07 10° NNE visible
21 Sep 5.1 22:18:15 10° NNW 22:20:34 12° N 22:22:52 10° NNE visible
22 Sep 4.7 00:03:12 10° NNW 00:07:08 19° NNE 00:11:02 10° ENE visible
22 Sep 2.9 01:46:59 10° NNW 01:52:35 52° NE 01:58:07 10° SE visible
22 Sep 2.7 03:31:22 10° NW 03:36:31 36° WSW 03:41:37 10° S visible
22 Sep 2.9 18:28:29 10° SW 18:34:06 59° NW 18:39:45 10° NNE visible
22 Sep 4.7 20:15:18 10° WNW 20:19:24 20° NNW 20:23:32 10° NNE visible
22 Sep 5.1 22:03:36 10° NNW 22:05:55 12° N 22:08:14 10° NNE visible
22 Sep 4.6 23:48:37 10° NNW 23:52:29 18° NNE 23:56:21 10° ENE visible
23 Sep 2.9 01:32:25 10° NNW 01:37:58 51° NE 01:43:30 10° SE visible
23 Sep 2.6 03:16:45 10° NW 03:21:57 37° WSW 03:27:06 10° S visible
23 Sep 2.9 18:13:52 10° SW 18:19:29 61° NW 18:25:09 10° NNE visible
23 Sep 4.7 20:00:37 10° WNW 20:04:47 20° NNW 20:08:57 10° NNE visible
23 Sep 5.0 21:48:56 10° NNW 21:51:16 12° N 21:53:36 10° NNE visible
23 Sep 4.6 23:34:02 10° NNW 23:37:51 18° NNE 23:41:39 10° ENE visible
24 Sep 3.0 01:17:49 10° NNW 01:23:22 49° NE 01:24:17 45° E visible
24 Sep 2.9 03:02:08 10° NW 03:05:56 33° WNW 03:05:56 33° WNW visible
24 Sep 2.8 17:59:15 10° SW 18:04:53 63° NW 18:10:34 10° NNE visible
24 Sep 4.6 19:45:57 10° WNW 19:50:09 21° NNW 19:54:22 10° NNE visible
24 Sep 5.0 21:34:16 10° NNW 21:36:36 12° N 21:38:57 10° NNE visible
24 Sep 4.6 23:19:27 10° NNW 23:23:13 18° NNE 23:26:21 12° ENE visible
25 Sep 3.1 01:03:15 10° NNW 01:08:05 45° NNE 01:08:05 45° NNE visible
25 Sep 3.6 02:47:32 10° NW 02:49:49 23° NW 02:49:49 23° NW visible
25 Sep 4.6 19:31:16 10° W 19:35:31 21° NNW 19:39:47 10° NNE visible
25 Sep 4.9 21:19:36 10° NNW 21:21:58 12° N 21:24:20 10° NNE visible
25 Sep 4.6 23:04:52 10° NNW 23:08:34 17° NNE 23:10:49 14° NE visible
26 Sep 3.5 00:48:40 10° NNW 00:52:35 37° N 00:52:35 37° N visible
26 Sep 4.0 02:32:55 10° NW 02:34:21 18° NW 02:34:21 18° NW visible
26 Sep 4.6 19:16:35 10° W 19:20:53 21° NNW 19:25:12 10° NNE visible
26 Sep 4.9 21:04:56 10° NNW 21:07:19 12° N 21:09:41 10° NNE visible
26 Sep 4.6 22:50:17 10° NNW 22:53:56 17° NNE 22:55:38 15° NE visible
27 Sep 3.7 00:34:05 10° NNW 00:37:25 32° N 00:37:25 32° N visible
27 Sep 4.3 02:18:19 10° NW 02:19:11 14° NW 02:19:11 14° NW visible
27 Sep 4.5 19:01:55 10° W 19:06:16 22° NNW 19:10:37 10° NNE visible
27 Sep 4.9 20:50:17 10° NNW 20:52:39 13° N 20:55:03 10° NNE visible
27 Sep 4.5 22:35:41 10° NNW 22:39:18 17° NNE 22:40:38 16° NE visible
28 Sep 3.9 00:19:29 10° NNW 00:22:25 28° N 00:22:25 28° N visible
28 Sep 4.5 02:03:42 10° NW 02:04:12 12° NW 02:04:12 12° NW visible
28 Sep 4.5 18:47:13 10° W 18:51:37 22° NNW 18:56:02 10° NNE visible
28 Sep 4.8 20:35:36 10° NNW 20:38:01 13° N 20:40:25 10° NNE visible
28 Sep 4.5 22:21:06 10° NNW 22:24:40 17° NNE 22:25:46 16° NE visible
